owner,sensor,date,latitude,longitude,vertical_datum,sea_water_practical_salinity,qcFlag 
SCCF RECON,ioos:station:SCCF:13:1,2008-01-16T18:00:00Z,26.5255,-82.0032,2.1,33.73,1111122 
SCCF RECON,ioos:station:SCCF:13:1,2008-01-16T19:00:00Z,26.5255,-82.0032,2.09,34.38,1111122 
SCCF RECON,ioos:station:SCCF:13:1,2008-01-16T20:00:00Z,26.5255,-82.0032,2.14,34.39,1111122 
SCCF RECON,ioos:station:SCCF:13:1,2008-01-16T21:00:00Z,26.5255,-82.0032,2.22,34.8,1111122 
SCCF RECON,ioos:station:SCCF:13:1,2008-01-16T22:00:00Z,26.5255,-82.0032,2.29,35.13,1111122 
SCCF RECON,ioos:station:SCCF:13:1,2008-01-16T23:00:00Z,26.5255,-82.0032,2.36,35.12,1111122 
SCCF RECON,ioos:station:SCCF:13:1,2008-01-17T00:00:00Z,26.5255,-82.0032,2.418,35.3,1111122 
SCCF RECON,ioos:station:SCCF:13:1,2008-01-17T01:00:00Z,26.5255,-82.0032,2.42,35.48,1111122 
SCCF RECON,ioos:station:SCCF:13:1,2008-01-17T03:00:00Z,26.5255,-82.0032,2.285,35.58,1111122 
SCCF RECON,ioos:station:SCCF:13:1,2008-01-17T04:00:00Z,26.5255,-82.0032,2.189,35.56,1111122 
SCCF RECON,ioos:station:SCCF:13:1,2008-01-17T05:00:00Z,26.5255,-82.0032,2.1,35.49,1111122 
SCCF RECON,ioos:station:SCCF:13:1,2008-01-17T06:00:00Z,26.5255,-82.0032,2.032,34.36,1111122 
SCCF RECON,ioos:station:SCCF:13:1,2008-01-17T07:00:00Z,26.5255,-82.0032,1.98,34.51,1111122 
SCCF RECON,ioos:station:SCCF:13:1,2008-01-17T08:00:00Z,26.5255,-82.0032,1.97,34.46,1111122 
SCCF RECON,ioos:station:SCCF:13:1,2008-01-17T09:00:00Z,26.5255,-82.0032,2.02,34.38,1111122 
SCCF RECON,ioos:station:SCCF:13:1,2008-01-17T11:00:00Z,26.5255,-82.0032,2.197,34.16,1111122 
SCCF RECON,ioos:station:SCCF:13:1,2008-01-17T12:00:00Z,26.5255,-82.0032,2.216,34.29,1111122 
SCCF RECON,ioos:station:SCCF:13:1,2008-01-17T13:00:00Z,26.5255,-82.0032,2.25,34.57,1111122 
SCCF RECON,ioos:station:SCCF:13:1,2008-01-17T14:00:00Z,26.5255,-82.0032,2.3,34.87,1111122 
SCCF RECON,ioos:station:SCCF:13:1,2008-01-17T15:00:00Z,26.5255,-82.0032,2.32,35.54,1111122 
SCCF RECON,ioos:station:SCCF:13:1,2008-01-17T16:00:00Z,26.5255,-82.0032,2.37,35.61,1111122 
SCCF RECON,ioos:station:SCCF:13:1,2008-01-17T17:00:00Z,26.5255,-82.0032,2.41,35.69,1111122 
SCCF RECON,ioos:station:SCCF:13:1,2008-01-17T18:00:00Z,26.5255,-82.0032,2.39,35.74,1111122 
SCCF RECON,ioos:station:SCCF:13:1,2008-01-17T19:00:00Z,26.5255,-82.0032,2.38,35.73,1111122 
SCCF RECON,ioos:station:SCCF:13:1,2008-01-17T20:00:00Z,26.5255,-82.0032,2.37,35.73,1111122 
SCCF RECON,ioos:station:SCCF:13:1,2008-01-17T21:00:00Z,26.5255,-82.0032,2.43,35.73,1111122 
SCCF RECON,ioos:station:SCCF:13:1,2008-01-17T22:00:00Z,26.5255,-82.0032,2.5,35.76,1111122 
SCCF RECON,ioos:station:SCCF:13:1,2008-01-17T23:00:00Z,26.5255,-82.0032,2.56,35.81,1111122 
SCCF RECON,ioos:station:SCCF:13:1,2008-01-18T00:00:00Z,26.5255,-82.0032,2.587,35.78,1111122 
SCCF RECON,ioos:station:SCCF:13:1,2008-01-18T01:00:00Z,26.5255,-82.0032,2.588,35.77,1111122 
SCCF RECON,ioos:station:SCCF:13:1,2008-01-18T02:00:00Z,26.5255,-82.0032,2.56,35.76,1111122 
SCCF RECON,ioos:station:SCCF:13:1,2008-01-18T03:00:00Z,26.5255,-82.0032,2.51,35.76,1111122 
SCCF RECON,ioos:station:SCCF:13:1,2008-01-18T04:00:00Z,26.5255,-82.0032,2.44,35.62,1111122 
SCCF RECON,ioos:station:SCCF:13:1,2008-01-18T05:00:00Z,26.5255,-82.0032,2.34,35.61,1111122 
SCCF RECON,ioos:station:SCCF:13:1,2008-01-18T06:00:00Z,26.5255,-82.0032,2.239,34.9,1111122 
SCCF RECON,ioos:station:SCCF:13:1,2008-01-18T07:00:00Z,26.5255,-82.0032,2.131,34.37,1111122 
SCCF RECON,ioos:station:SCCF:13:1,2008-01-18T08:00:00Z,26.5255,-82.0032,2.04,34.88,1111122 
SCCF RECON,ioos:station:SCCF:13:1,2008-01-18T09:00:00Z,26.5255,-82.0032,1.97,34.35,1111122 
SCCF RECON,ioos:station:SCCF:13:1,2008-01-18T10:00:00Z,26.5255,-82.0032,1.95,33.75,1111122 
SCCF RECON,ioos:station:SCCF:13:1,2008-01-18T11:00:00Z,26.5255,-82.0032,2.039,33.29,1111122 
SCCF RECON,ioos:station:SCCF:13:1,2008-01-18T12:00:00Z,26.5255,-82.0032,2.11,33.01,1111122 
SCCF RECON,ioos:station:SCCF:13:1,2008-01-18T13:00:00Z,26.5255,-82.0032,2.15,32.77,1111122 
SCCF RECON,ioos:station:SCCF:13:1,2008-01-18T14:00:00Z,26.5255,-82.0032,2.2,32.97,1111122 
SCCF RECON,ioos:station:SCCF:13:1,2008-01-18T15:00:00Z,26.5255,-82.0032,2.25,34.14,1111122 
SCCF RECON,ioos:station:SCCF:13:1,2008-01-18T16:00:00Z,26.5255,-82.0032,2.28,34.13,1111122 
SCCF RECON,ioos:station:SCCF:13:1,2008-01-18T17:00:00Z,26.5255,-82.0032,2.3,34.56,1111122 
SCCF RECON,ioos:station:SCCF:13:1,2008-01-18T18:00:00Z,26.5255,-82.0032,2.304,34.84,1111122 
SCCF RECON,ioos:station:SCCF:13:1,2008-01-18T19:00:00Z,26.5255,-82.0032,2.29,35.31,1111122 
SCCF RECON,ioos:station:SCCF:13:1,2008-01-18T20:00:00Z,26.5255,-82.0032,2.268,35.45,1111122 
SCCF RECON,ioos:station:SCCF:13:1,2008-01-18T21:00:00Z,26.5255,-82.0032,2.28,35.43,1111122 
SCCF RECON,ioos:station:SCCF:13:1,2008-01-18T22:00:00Z,26.5255,-82.0032,2.34,35.47,1111122 
SCCF RECON,ioos:station:SCCF:13:1,2008-01-18T23:00:00Z,26.5255,-82.0032,2.42,35.42,1111122 
SCCF RECON,ioos:station:SCCF:13:1,2008-01-19T02:00:00Z,26.5255,-82.0032,2.53,35.67,1111122 
SCCF RECON,ioos:station:SCCF:13:1,2008-01-19T03:00:00Z,26.5255,-82.0032,2.51,35.73,1111122 
SCCF RECON,ioos:station:SCCF:13:1,2008-01-19T04:00:00Z,26.5255,-82.0032,2.46,35.77,1111122 
SCCF RECON,ioos:station:SCCF:13:1,2008-01-19T05:00:00Z,26.5255,-82.0032,2.36,35.73,1111122 
SCCF RECON,ioos:station:SCCF:13:1,2008-01-19T06:00:00Z,26.5255,-82.0032,2.26,35.43,1111122 
SCCF RECON,ioos:station:SCCF:13:1,2008-01-19T07:00:00Z,26.5255,-82.0032,2.16,34.9,1111122 
SCCF RECON,ioos:station:SCCF:13:1,2008-01-19T08:00:00Z,26.5255,-82.0032,2.06,34.65,1111122 
SCCF RECON,ioos:station:SCCF:13:1,2008-01-19T09:00:00Z,26.5255,-82.0032,1.981,33.63,1111122 
SCCF RECON,ioos:station:SCCF:13:1,2008-01-19T10:00:00Z,26.5255,-82.0032,1.92,33.49,1111122 
SCCF RECON,ioos:station:SCCF:13:1,2008-01-19T11:00:00Z,26.5255,-82.0032,1.886,33.03,1111122 
SCCF RECON,ioos:station:SCCF:13:1,2008-01-19T12:00:00Z,26.5255,-82.0032,1.94,32.44,1111122 
SCCF RECON,ioos:station:SCCF:13:1,2008-01-19T13:00:00Z,26.5255,-82.0032,2.05,32.14,1111122 
SCCF RECON,ioos:station:SCCF:13:1,2008-01-19T14:00:00Z,26.5255,-82.0032,2.12,32.18,1111122 
SCCF RECON,ioos:station:SCCF:13:1,2008-01-19T15:00:00Z,26.5255,-82.0032,2.188,33.42,1111122 
SCCF RECON,ioos:station:SCCF:13:1,2008-01-19T16:00:00Z,26.5255,-82.0032,2.255,33.45,1111122 
SCCF RECON,ioos:station:SCCF:13:1,2008-01-19T17:00:00Z,26.5255,-82.0032,2.29,34.45,1111122 
SCCF RECON,ioos:station:SCCF:13:1,2008-01-19T18:00:00Z,26.5255,-82.0032,2.282,35.37,1111122 
SCCF RECON,ioos:station:SCCF:13:1,2008-01-19T19:00:00Z,26.5255,-82.0032,2.26,35.46,1111122 
SCCF RECON,ioos:station:SCCF:13:1,2008-01-19T20:00:00Z,26.5255,-82.0032,2.271,35.47,1111122 
SCCF RECON,ioos:station:SCCF:13:1,2008-01-19T21:00:00Z,26.5255,-82.0032,2.312,35.49,1111122 
SCCF RECON,ioos:station:SCCF:13:1,2008-01-19T22:00:00Z,26.5255,-82.0032,2.35,35.53,1111122 
SCCF RECON,ioos:station:SCCF:13:1,2008-01-19T23:00:00Z,26.5255,-82.0032,2.381,35.57,1111122 
SCCF RECON,ioos:station:SCCF:13:1,2008-01-20T00:00:00Z,26.5255,-82.0032,2.439,35.64,1111122 
SCCF RECON,ioos:station:SCCF:13:1,2008-01-20T01:00:00Z,26.5255,-82.0032,2.524,35.78,1111122 
SCCF RECON,ioos:station:SCCF:13:1,2008-01-20T02:00:00Z,26.5255,-82.0032,2.59,35.8,1111122 
SCCF RECON,ioos:station:SCCF:13:1,2008-01-20T07:00:00Z,26.5255,-82.0032,2.43,35.58,1111122 
SCCF RECON,ioos:station:SCCF:13:1,2008-01-20T08:00:00Z,26.5255,-82.0032,2.33,35.51,1111122 
SCCF RECON,ioos:station:SCCF:13:1,2008-01-20T09:00:00Z,26.5255,-82.0032,2.225,35.42,1111122 
SCCF RECON,ioos:station:SCCF:13:1,2008-01-20T10:00:00Z,26.5255,-82.0032,2.119,35.19,1111122 
SCCF RECON,ioos:station:SCCF:13:1,2008-01-20T11:00:00Z,26.5255,-82.0032,2.03,34.77,1111122 
SCCF RECON,ioos:station:SCCF:13:1,2008-01-20T13:00:00Z,26.5255,-82.0032,1.92,33.11,1111122 
SCCF RECON,ioos:station:SCCF:13:1,2008-01-20T14:00:00Z,26.5255,-82.0032,1.933,32.4,1111122 
SCCF RECON,ioos:station:SCCF:13:1,2008-01-20T15:00:00Z,26.5255,-82.0032,1.944,31.81,1111122 
SCCF RECON,ioos:station:SCCF:13:1,2008-01-20T16:00:00Z,26.5255,-82.0032,1.939,31.33,1111122 
SCCF RECON,ioos:station:SCCF:13:1,2008-01-20T17:00:00Z,26.5255,-82.0032,1.955,31.08,1111122 
SCCF RECON,ioos:station:SCCF:13:1,2008-01-20T18:00:00Z,26.5255,-82.0032,1.921,30.75,1111122 
SCCF RECON,ioos:station:SCCF:13:1,2008-01-20T19:00:00Z,26.5255,-82.0032,1.9,30.22,1111122 
SCCF RECON,ioos:station:SCCF:13:1,2008-01-20T20:00:00Z,26.5255,-82.0032,1.89,29.96,1111122 
SCCF RECON,ioos:station:SCCF:13:1,2008-01-20T21:00:00Z,26.5255,-82.0032,1.9,29.77,1111122 
SCCF RECON,ioos:station:SCCF:13:1,2008-01-20T22:00:00Z,26.5255,-82.0032,1.929,29.64,1111122 
SCCF RECON,ioos:station:SCCF:13:1,2008-01-20T23:00:00Z,26.5255,-82.0032,1.873,29.34,1111122 
SCCF RECON,ioos:station:SCCF:13:1,2008-01-21T00:00:00Z,26.5255,-82.0032,1.95,29.19,1111122 
SCCF RECON,ioos:station:SCCF:13:1,2008-01-21T01:00:00Z,26.5255,-82.0032,2.053,29.33,1111122 
SCCF RECON,ioos:station:SCCF:13:1,2008-01-21T02:00:00Z,26.5255,-82.0032,2.13,30.72,1111122 
SCCF RECON,ioos:station:SCCF:13:1,2008-01-21T03:00:00Z,26.5255,-82.0032,2.149,31.77,1111122 
SCCF RECON,ioos:station:SCCF:13:1,2008-01-21T04:00:00Z,26.5255,-82.0032,2.192,31.78,1111122 
SCCF RECON,ioos:station:SCCF:13:1,2008-01-21T05:00:00Z,26.5255,-82.0032,2.22,32.61,1111122 
SCCF RECON,ioos:station:SCCF:13:1,2008-01-21T06:00:00Z,26.5255,-82.0032,2.16,33.1,1111122 
SCCF RECON,ioos:station:SCCF:13:1,2008-01-21T07:00:00Z,26.5255,-82.0032,2.03,33.32,1111122 
SCCF RECON,ioos:station:SCCF:13:1,2008-01-21T08:00:00Z,26.5255,-82.0032,1.95,32.12,1111122 
SCCF RECON,ioos:station:SCCF:13:1,2008-01-21T09:00:00Z,26.5255,-82.0032,1.855,31.05,1111122 
SCCF RECON,ioos:station:SCCF:13:1,2008-01-21T11:00:00Z,26.5255,-82.0032,1.701,30.11,1111122 
SCCF RECON,ioos:station:SCCF:13:1,2008-01-21T14:00:00Z,26.5255,-82.0032,1.72,28.43,1111122 
SCCF RECON,ioos:station:SCCF:13:1,2008-01-21T15:00:00Z,26.5255,-82.0032,1.83,28.25,1111122 
SCCF RECON,ioos:station:SCCF:13:1,2008-01-21T16:00:00Z,26.5255,-82.0032,1.91,28.27,1111122 
SCCF RECON,ioos:station:SCCF:13:1,2008-01-21T17:00:00Z,26.5255,-82.0032,1.98,29.84,1111122 
SCCF RECON,ioos:station:SCCF:13:1,2008-01-21T18:00:00Z,26.5255,-82.0032,2.028,30.57,1111122 
SCCF RECON,ioos:station:SCCF:13:1,2008-01-21T19:00:00Z,26.5255,-82.0032,2.059,32.04,1111122 
SCCF RECON,ioos:station:SCCF:13:1,2008-01-21T20:00:00Z,26.5255,-82.0032,2.071,33.02,1111122 
SCCF RECON,ioos:station:SCCF:13:1,2008-01-21T21:00:00Z,26.5255,-82.0032,2.097,33.18,1111122 
SCCF RECON,ioos:station:SCCF:13:1,2008-01-21T22:00:00Z,26.5255,-82.0032,2.11,33.22,1111122 
SCCF RECON,ioos:station:SCCF:13:1,2008-01-22T02:00:00Z,26.5255,-82.0032,2.31,33.93,1111122 
SCCF RECON,ioos:station:SCCF:13:1,2008-01-22T03:00:00Z,26.5255,-82.0032,2.371,34.42,1111122 
SCCF RECON,ioos:station:SCCF:13:1,2008-01-22T04:00:00Z,26.5255,-82.0032,2.444,34.88,1111122 
SCCF RECON,ioos:station:SCCF:13:1,2008-01-22T05:00:00Z,26.5255,-82.0032,2.5,35.21,1111122 
SCCF RECON,ioos:station:SCCF:13:1,2008-01-22T06:00:00Z,26.5255,-82.0032,2.5,35.42,1111122 
SCCF RECON,ioos:station:SCCF:13:1,2008-01-22T07:00:00Z,26.5255,-82.0032,2.44,35.58,1111122 
SCCF RECON,ioos:station:SCCF:13:1,2008-01-22T08:00:00Z,26.5255,-82.0032,2.32,35.65,1111122 
SCCF RECON,ioos:station:SCCF:13:1,2008-01-22T09:00:00Z,26.5255,-82.0032,2.23,35.6,1111122 
SCCF RECON,ioos:station:SCCF:13:1,2008-01-22T10:00:00Z,26.5255,-82.0032,2.14,35.05,1111122 
SCCF RECON,ioos:station:SCCF:13:1,2008-01-22T11:00:00Z,26.5255,-82.0032,2.061,34.17,1111122 
SCCF RECON,ioos:station:SCCF:13:1,2008-01-22T12:00:00Z,26.5255,-82.0032,1.989,34.09,1111122 
SCCF RECON,ioos:station:SCCF:13:1,2008-01-22T13:00:00Z,26.5255,-82.0032,1.929,34.05,1111122 
SCCF RECON,ioos:station:SCCF:13:1,2008-01-22T14:00:00Z,26.5255,-82.0032,1.95,33.69,1111122 
SCCF RECON,ioos:station:SCCF:13:1,2008-01-22T15:00:00Z,26.5255,-82.0032,2.07,32.79,1111122 
SCCF RECON,ioos:station:SCCF:13:1,2008-01-22T16:00:00Z,26.5255,-82.0032,2.17,32.64,1111122 
SCCF RECON,ioos:station:SCCF:13:1,2008-01-22T17:00:00Z,26.5255,-82.0032,2.25,33.35,1111122 
SCCF RECON,ioos:station:SCCF:13:1,2008-01-22T18:00:00Z,26.5255,-82.0032,2.3,33.8,1111122 
SCCF RECON,ioos:station:SCCF:13:1,2008-01-22T19:00:00Z,26.5255,-82.0032,2.34,34.57,1111122 
SCCF RECON,ioos:station:SCCF:13:1,2008-01-22T20:00:00Z,26.5255,-82.0032,2.34,34.98,1111122 
SCCF RECON,ioos:station:SCCF:13:1,2008-01-22T21:00:00Z,26.5255,-82.0032,2.33,34.95,1111122 
SCCF RECON,ioos:station:SCCF:13:1,2008-01-22T22:00:00Z,26.5255,-82.0032,2.29,34.84,1111122 
SCCF RECON,ioos:station:SCCF:13:1,2008-01-22T23:00:00Z,26.5255,-82.0032,2.25,34.75,1111122 
SCCF RECON,ioos:station:SCCF:13:1,2008-01-23T01:00:00Z,26.5255,-82.0032,2.32,34.79,1111122 
SCCF RECON,ioos:station:SCCF:13:1,2008-01-23T02:00:00Z,26.5255,-82.0032,2.4,34.58,1111122 
SCCF RECON,ioos:station:SCCF:13:1,2008-01-23T03:00:00Z,26.5255,-82.0032,2.5,34.68,1111122 
SCCF RECON,ioos:station:SCCF:13:1,2008-01-23T04:00:00Z,26.5255,-82.0032,2.58,35.11,1111122 
SCCF RECON,ioos:station:SCCF:13:1,2008-01-23T05:00:00Z,26.5255,-82.0032,2.63,35.49,1111122 
SCCF RECON,ioos:station:SCCF:13:1,2008-01-23T06:00:00Z,26.5255,-82.0032,2.649,35.65,1111122 
SCCF RECON,ioos:station:SCCF:13:1,2008-01-23T07:00:00Z,26.5255,-82.0032,2.61,35.78,1111122 
SCCF RECON,ioos:station:SCCF:13:1,2008-01-23T08:00:00Z,26.5255,-82.0032,2.521,35.82,1111122 
SCCF RECON,ioos:station:SCCF:13:1,2008-01-23T09:00:00Z,26.5255,-82.0032,2.41,35.81,1111122 
SCCF RECON,ioos:station:SCCF:13:1,2008-01-23T10:00:00Z,26.5255,-82.0032,2.31,35.43,1111122 
SCCF RECON,ioos:station:SCCF:13:1,2008-01-23T11:00:00Z,26.5255,-82.0032,2.211,35.23,1111122 
SCCF RECON,ioos:station:SCCF:13:1,2008-01-23T12:00:00Z,26.5255,-82.0032,2.12,34.89,1111122 
SCCF RECON,ioos:station:SCCF:13:1,2008-01-23T13:00:00Z,26.5255,-82.0032,2.037,34.63,1111122 
SCCF RECON,ioos:station:SCCF:13:1,2008-01-23T14:00:00Z,26.5255,-82.0032,1.99,34.32,1111122 
SCCF RECON,ioos:station:SCCF:13:1,2008-01-23T15:00:00Z,26.5255,-82.0032,2.054,33.69,1111122 
SCCF RECON,ioos:station:SCCF:13:1,2008-01-23T16:00:00Z,26.5255,-82.0032,2.22,33.45,1111122 
SCCF RECON,ioos:station:SCCF:13:1,2008-01-23T17:00:00Z,26.5255,-82.0032,2.292,33.95,1111122 
SCCF RECON,ioos:station:SCCF:13:1,2008-01-23T18:00:00Z,26.5255,-82.0032,2.323,34.3,1111122 
SCCF RECON,ioos:station:SCCF:13:1,2008-01-23T19:00:00Z,26.5255,-82.0032,2.362,34.54,1111122 
SCCF RECON,ioos:station:SCCF:13:1,2008-01-23T20:00:00Z,26.5255,-82.0032,2.39,35.32,1111122 
SCCF RECON,ioos:station:SCCF:13:1,2008-01-23T21:00:00Z,26.5255,-82.0032,2.36,35.42,1111122 
SCCF RECON,ioos:station:SCCF:13:1,2008-01-23T22:00:00Z,26.5255,-82.0032,2.31,35.41,1111122 
SCCF RECON,ioos:station:SCCF:13:1,2008-01-23T23:00:00Z,26.5255,-82.0032,2.26,35.4,1111122 
SCCF RECON,ioos:station:SCCF:13:1,2008-01-24T00:00:00Z,26.5255,-82.0032,2.211,35.13,1111122 
SCCF RECON,ioos:station:SCCF:13:1,2008-01-24T01:00:00Z,26.5255,-82.0032,2.2,34.79,1111122 
SCCF RECON,ioos:station:SCCF:13:1,2008-01-24T02:00:00Z,26.5255,-82.0032,2.23,34.73,1111122 
SCCF RECON,ioos:station:SCCF:13:1,2008-01-24T03:00:00Z,26.5255,-82.0032,2.357,34.52,1111122 
SCCF RECON,ioos:station:SCCF:13:1,2008-01-24T04:00:00Z,26.5255,-82.0032,2.46,34.7,1111122 
SCCF RECON,ioos:station:SCCF:13:1,2008-01-24T05:00:00Z,26.5255,-82.0032,2.52,35.12,1111122 
SCCF RECON,ioos:station:SCCF:13:1,2008-01-24T06:00:00Z,26.5255,-82.0032,2.57,35.22,1111122 
SCCF RECON,ioos:station:SCCF:13:1,2008-01-24T07:00:00Z,26.5255,-82.0032,2.59,35.53,1111122 
SCCF RECON,ioos:station:SCCF:13:1,2008-01-24T08:00:00Z,26.5255,-82.0032,2.53,35.69,1111122 
SCCF RECON,ioos:station:SCCF:13:1,2008-01-24T09:00:00Z,26.5255,-82.0032,2.42,35.64,1111122 
SCCF RECON,ioos:station:SCCF:13:1,2008-01-24T11:00:00Z,26.5255,-82.0032,2.23,35.32,1111122 
SCCF RECON,ioos:station:SCCF:13:1,2008-01-24T12:00:00Z,26.5255,-82.0032,2.143,35.05,1111122 
SCCF RECON,ioos:station:SCCF:13:1,2008-01-24T13:00:00Z,26.5255,-82.0032,2.068,34.7,1111122 
SCCF RECON,ioos:station:SCCF:13:1,2008-01-24T14:00:00Z,26.5255,-82.0032,2.0,34.4,1111122 
SCCF RECON,ioos:station:SCCF:13:1,2008-01-24T15:00:00Z,26.5255,-82.0032,1.988,34.03,1111122 
SCCF RECON,ioos:station:SCCF:13:1,2008-01-24T16:00:00Z,26.5255,-82.0032,2.1,33.5,1111122 
SCCF RECON,ioos:station:SCCF:13:1,2008-01-24T17:00:00Z,26.5255,-82.0032,2.21,33.19,1111122 
SCCF RECON,ioos:station:SCCF:13:1,2008-01-24T18:00:00Z,26.5255,-82.0032,2.263,33.88,1111122 
SCCF RECON,ioos:station:SCCF:13:1,2008-01-24T19:00:00Z,26.5255,-82.0032,2.31,34.18,1111122 
SCCF RECON,ioos:station:SCCF:13:1,2008-01-24T20:00:00Z,26.5255,-82.0032,2.34,34.53,1111122 
SCCF RECON,ioos:station:SCCF:13:1,2008-01-24T21:00:00Z,26.5255,-82.0032,2.31,35.18,1111122 
SCCF RECON,ioos:station:SCCF:13:1,2008-01-24T22:00:00Z,26.5255,-82.0032,2.25,35.39,1111122 
SCCF RECON,ioos:station:SCCF:13:1,2008-01-24T23:00:00Z,26.5255,-82.0032,2.19,35.32,1111122 
SCCF RECON,ioos:station:SCCF:13:1,2008-01-25T00:00:00Z,26.5255,-82.0032,2.145,34.88,1111122 
SCCF RECON,ioos:station:SCCF:13:1,2008-01-25T01:00:00Z,26.5255,-82.0032,2.12,34.36,1111122 
SCCF RECON,ioos:station:SCCF:13:1,2008-01-25T02:00:00Z,26.5255,-82.0032,2.101,33.99,1111122 
SCCF RECON,ioos:station:SCCF:13:1,2008-01-25T03:00:00Z,26.5255,-82.0032,2.18,33.47,1111122 
SCCF RECON,ioos:station:SCCF:13:1,2008-01-25T04:00:00Z,26.5255,-82.0032,2.271,33.33,1111122 
SCCF RECON,ioos:station:SCCF:13:1,2008-01-25T05:00:00Z,26.5255,-82.0032,2.3,33.91,1111122 
SCCF RECON,ioos:station:SCCF:13:1,2008-01-25T06:00:00Z,26.5255,-82.0032,2.35,34.44,1111122 
SCCF RECON,ioos:station:SCCF:13:1,2008-01-25T07:00:00Z,26.5255,-82.0032,2.44,34.76,1111122 
SCCF RECON,ioos:station:SCCF:13:1,2008-01-25T08:00:00Z,26.5255,-82.0032,2.488,35.17,1111122 
SCCF RECON,ioos:station:SCCF:13:1,2008-01-25T09:00:00Z,26.5255,-82.0032,2.463,35.27,1111122 
SCCF RECON,ioos:station:SCCF:13:1,2008-01-25T10:00:00Z,26.5255,-82.0032,2.361,35.42,1111122 
SCCF RECON,ioos:station:SCCF:13:1,2008-01-25T11:00:00Z,26.5255,-82.0032,2.254,35.28,1111122 
SCCF RECON,ioos:station:SCCF:13:1,2008-01-25T12:00:00Z,26.5255,-82.0032,2.16,34.89,1111122 
SCCF RECON,ioos:station:SCCF:13:1,2008-01-25T13:00:00Z,26.5255,-82.0032,2.082,34.74,1111122 
SCCF RECON,ioos:station:SCCF:13:1,2008-01-25T14:00:00Z,26.5255,-82.0032,2.003,34.01,1111122 
SCCF RECON,ioos:station:SCCF:13:1,2008-01-25T15:00:00Z,26.5255,-82.0032,1.941,33.13,1111122 
SCCF RECON,ioos:station:SCCF:13:1,2008-01-25T16:00:00Z,26.5255,-82.0032,1.97,32.49,1111122 
SCCF RECON,ioos:station:SCCF:13:1,2008-01-25T17:00:00Z,26.5255,-82.0032,2.07,32.24,1111122 
SCCF RECON,ioos:station:SCCF:13:1,2008-01-25T18:00:00Z,26.5255,-82.0032,2.13,31.93,1111122 
SCCF RECON,ioos:station:SCCF:13:1,2008-01-25T19:00:00Z,26.5255,-82.0032,2.2,32.19,1111122 
SCCF RECON,ioos:station:SCCF:13:1,2008-01-25T20:00:00Z,26.5255,-82.0032,2.251,33.48,1111122 
SCCF RECON,ioos:station:SCCF:13:1,2008-01-25T21:00:00Z,26.5255,-82.0032,2.289,34.53,1111122 
SCCF RECON,ioos:station:SCCF:13:1,2008-01-25T22:00:00Z,26.5255,-82.0032,2.26,35.11,1111122 
SCCF RECON,ioos:station:SCCF:13:1,2008-01-25T23:00:00Z,26.5255,-82.0032,2.19,35.25,1111122 
SCCF RECON,ioos:station:SCCF:13:1,2008-01-26T00:00:00Z,26.5255,-82.0032,2.12,34.99,1111122 
SCCF RECON,ioos:station:SCCF:13:1,2008-01-26T01:00:00Z,26.5255,-82.0032,2.07,33.8,1111122 
SCCF RECON,ioos:station:SCCF:13:1,2008-01-26T02:00:00Z,26.5255,-82.0032,2.03,33.22,1111122 
SCCF RECON,ioos:station:SCCF:13:1,2008-01-26T03:00:00Z,26.5255,-82.0032,2.02,32.48,1111122 
SCCF RECON,ioos:station:SCCF:13:1,2008-01-26T04:00:00Z,26.5255,-82.0032,2.12,31.91,1111122 
SCCF RECON,ioos:station:SCCF:13:1,2008-01-26T05:00:00Z,26.5255,-82.0032,2.228,32.74,1111122 
SCCF RECON,ioos:station:SCCF:13:1,2008-01-26T06:00:00Z,26.5255,-82.0032,2.28,34.09,1111122 
SCCF RECON,ioos:station:SCCF:13:1,2008-01-26T07:00:00Z,26.5255,-82.0032,2.34,34.73,1111122 
SCCF RECON,ioos:station:SCCF:13:1,2008-01-26T08:00:00Z,26.5255,-82.0032,2.35,35.22,1111122 
SCCF RECON,ioos:station:SCCF:13:1,2008-01-26T09:00:00Z,26.5255,-82.0032,2.35,35.27,1111122 
SCCF RECON,ioos:station:SCCF:13:1,2008-01-26T10:00:00Z,26.5255,-82.0032,2.35,35.26,1111122 
SCCF RECON,ioos:station:SCCF:13:1,2008-01-26T11:00:00Z,26.5255,-82.0032,2.279,35.29,1111122 
SCCF RECON,ioos:station:SCCF:13:1,2008-01-26T12:00:00Z,26.5255,-82.0032,2.19,35.29,1111122 
SCCF RECON,ioos:station:SCCF:13:1,2008-01-26T13:00:00Z,26.5255,-82.0032,2.13,35.08,1111122 
SCCF RECON,ioos:station:SCCF:13:1,2008-01-26T14:00:00Z,26.5255,-82.0032,2.08,34.02,1111122 
SCCF RECON,ioos:station:SCCF:13:1,2008-01-26T15:00:00Z,26.5255,-82.0032,2.05,33.46,1111122 
SCCF RECON,ioos:station:SCCF:13:1,2008-01-26T16:00:00Z,26.5255,-82.0032,2.12,33.36,1111122 
SCCF RECON,ioos:station:SCCF:13:1,2008-01-26T17:00:00Z,26.5255,-82.0032,2.22,32.93,1111122 
SCCF RECON,ioos:station:SCCF:13:1,2008-01-26T18:00:00Z,26.5255,-82.0032,2.29,33.86,1111122 
SCCF RECON,ioos:station:SCCF:13:1,2008-01-26T19:00:00Z,26.5255,-82.0032,2.35,34.55,1111122 
SCCF RECON,ioos:station:SCCF:13:1,2008-01-26T20:00:00Z,26.5255,-82.0032,2.41,35.16,1111122 
SCCF RECON,ioos:station:SCCF:13:1,2008-01-26T21:00:00Z,26.5255,-82.0032,2.459,35.61,1111122 
SCCF RECON,ioos:station:SCCF:13:1,2008-01-26T22:00:00Z,26.5255,-82.0032,2.45,35.74,1111122 
SCCF RECON,ioos:station:SCCF:13:1,2008-01-26T23:00:00Z,26.5255,-82.0032,2.38,35.73,1111122 
SCCF RECON,ioos:station:SCCF:13:1,2008-01-27T00:00:00Z,26.5255,-82.0032,2.3,35.63,1111122 
SCCF RECON,ioos:station:SCCF:13:1,2008-01-27T03:00:00Z,26.5255,-82.0032,2.2,35.43,1111122 
SCCF RECON,ioos:station:SCCF:13:1,2008-01-27T04:00:00Z,26.5255,-82.0032,2.18,34.91,1111122 
SCCF RECON,ioos:station:SCCF:13:1,2008-01-27T05:00:00Z,26.5255,-82.0032,2.28,34.47,1111122 
SCCF RECON,ioos:station:SCCF:13:1,2008-01-27T06:00:00Z,26.5255,-82.0032,2.35,34.94,1111122 
SCCF RECON,ioos:station:SCCF:13:1,2008-01-27T07:00:00Z,26.5255,-82.0032,2.39,35.27,1111122 
SCCF RECON,ioos:station:SCCF:13:1,2008-01-27T08:00:00Z,26.5255,-82.0032,2.44,35.35,1111122 
SCCF RECON,ioos:station:SCCF:13:1,2008-01-27T09:00:00Z,26.5255,-82.0032,2.49,35.49,1111122 
SCCF RECON,ioos:station:SCCF:13:1,2008-01-27T10:00:00Z,26.5255,-82.0032,2.51,35.79,1111122 
SCCF RECON,ioos:station:SCCF:13:1,2008-01-27T11:00:00Z,26.5255,-82.0032,2.48,35.97,1111122 
SCCF RECON,ioos:station:SCCF:13:1,2008-01-27T12:00:00Z,26.5255,-82.0032,2.391,35.97,1111122 
SCCF RECON,ioos:station:SCCF:13:1,2008-01-27T13:00:00Z,26.5255,-82.0032,2.33,35.99,1111122 
SCCF RECON,ioos:station:SCCF:13:1,2008-01-27T14:00:00Z,26.5255,-82.0032,2.29,35.79,1111122 
SCCF RECON,ioos:station:SCCF:13:1,2008-01-27T15:00:00Z,26.5255,-82.0032,2.251,35.64,1111122 
SCCF RECON,ioos:station:SCCF:13:1,2008-01-27T16:00:00Z,26.5255,-82.0032,2.21,35.33,1111122 
SCCF RECON,ioos:station:SCCF:13:1,2008-01-27T17:00:00Z,26.5255,-82.0032,2.161,34.99,1111122 
SCCF RECON,ioos:station:SCCF:13:1,2008-01-27T18:00:00Z,26.5255,-82.0032,2.163,34.61,1111122 
SCCF RECON,ioos:station:SCCF:13:1,2008-01-27T19:00:00Z,26.5255,-82.0032,2.3,34.28,1111122 
SCCF RECON,ioos:station:SCCF:13:1,2008-01-27T20:00:00Z,26.5255,-82.0032,2.401,34.74,1111122 
SCCF RECON,ioos:station:SCCF:13:1,2008-01-27T21:00:00Z,26.5255,-82.0032,2.416,35.1,1111122 
SCCF RECON,ioos:station:SCCF:13:1,2008-01-27T22:00:00Z,26.5255,-82.0032,2.39,35.22,1111122 
SCCF RECON,ioos:station:SCCF:13:1,2008-01-27T23:00:00Z,26.5255,-82.0032,2.28,35.44,1111122 
SCCF RECON,ioos:station:SCCF:13:1,2008-01-28T00:00:00Z,26.5255,-82.0032,2.2,35.17,1111122 
SCCF RECON,ioos:station:SCCF:13:1,2008-01-28T01:00:00Z,26.5255,-82.0032,2.17,34.87,1111122 
SCCF RECON,ioos:station:SCCF:13:1,2008-01-28T02:00:00Z,26.5255,-82.0032,2.14,34.44,1111122 
SCCF RECON,ioos:station:SCCF:13:1,2008-01-28T03:00:00Z,26.5255,-82.0032,2.07,33.72,1111122 
SCCF RECON,ioos:station:SCCF:13:1,2008-01-28T04:00:00Z,26.5255,-82.0032,2.01,33.21,1111122 
SCCF RECON,ioos:station:SCCF:13:1,2008-01-28T05:00:00Z,26.5255,-82.0032,2.0,32.78,1111122 
SCCF RECON,ioos:station:SCCF:13:1,2008-01-28T06:00:00Z,26.5255,-82.0032,2.044,32.49,1111122 
SCCF RECON,ioos:station:SCCF:13:1,2008-01-28T07:00:00Z,26.5255,-82.0032,2.119,32.28,1111122 